Home   Weather   Buchloe   Past weeks
Flag for Germany

Past Weather in Buchloe, Bavaria, Germany — Yesterday and Last 2 Weeks

Now
54 °F

Passing clouds.


Feels Like: 54 °F
Forecast: 67 / 54 °F
Wind: 2 mph from Southwest

Location: Lechfeld

Current Time: Aug 21, 2019 at 6:55:29 am

Latest Report: Aug 21, 2019 at 5:20 am


Visibility: 6 mi

Pressure: 30.39 "Hg (28.22 "Hg at 618m altitude)

Humidity: 100%

Dew Point: 54 °F

Location of BuchloeLocation

Past Weather in Buchloe — Graph

°F

Buchloe Temperature Yesterday

Maximum temperature yesterday: 64 °F (at 12:39 am)
Minimum temperature yesterday: 54 °F (at 11:20 pm)
Average temperature yesterday: 61 °F

High & Low Weather Summary for the Past Weeks

 TemperatureHumidityPressure
High88 °F (Aug 9, 4:20 pm)100% (Aug 7, 8:20 pm)30.39 "Hg (Aug 7, 8:20 pm)
Low46 °F (Aug 15, 4:20 am)27% (Aug 18, 3:20 pm)29.83 "Hg (Aug 11, 7:20 pm)
Average65 °F76%30.04 "Hg
* Reported Aug 6 5:20 am — Aug 21 5:20 am, Buchloe. Weather by CustomWeather, © 2019

Note: Actual official high and low records may vary slightly from our data, if they occured in-between our weather recording intervals... More about our weather records

Advertising

Buchloe Weather History for the Previous 24 Hours

Scroll right to see more
 ConditionsComfort  
Time TempWeatherWind HumidityBarometerVisibility
5:20 am
Wed, Aug 21
54 °FPassing clouds.2 mph100%30.39 "Hg6 mi
4:20 am54 °FPassing clouds.2 mph100%30.36 "Hg6 mi
3:20 am54 °FLight rain. Passing clouds.2 mph100%30.36 "Hg5 mi
2:20 am54 °FLight rain. Mostly cloudy.3 mph100%30.36 "Hg5 mi
1:20 am54 °FLight rain. Mostly cloudy.2 mph100%30.36 "Hg5 mi
12:20 am54 °FRain. Mostly cloudy.2 mph100%30.36 "Hg5 mi
11:20 pm
Tue, Aug 20
54 °FRain. Overcast.6 mph100%30.36 "Hg4 mi
10:20 pm55 °FRain. Overcast.5 mph94%30.36 "Hg4 mi
9:20 pm55 °FRain. Mostly cloudy.6 mph94%30.33 "Hg4 mi
8:20 pm55 °FRain. Mostly cloudy.6 mph100%30.30 "Hg4 mi
7:20 pm57 °FLight rain. Mostly cloudy.9 mph94%30.27 "HgN/A
6:40 pm57 °FRain. Fog.8 mph94%30.27 "Hg2 mi
6:20 pm57 °FLight rain. Mostly cloudy.10 mph94%30.24 "Hg5 mi
5:20 pm59 °FDrizzle. Fog.10 mph94%30.21 "Hg3 mi
4:20 pm61 °FDrizzle. Fog.7 mph94%30.18 "Hg2 mi
3:20 pm59 °FDrizzle. Fog.10 mph100%30.18 "Hg2 mi
3:10 pm61 °FDrizzle. Fog.10 mph94%30.18 "Hg3 mi
2:20 pm63 °FLight rain. Cloudy.8 mph94%30.15 "HgN/A
1:20 pm64 °FRain. Partly sunny.5 mph94%30.15 "HgN/A
12:20 pm64 °FRain. Broken clouds.3 mph88%30.18 "HgN/A
11:20 am64 °FRain. Broken clouds.3 mph88%30.18 "HgN/A
10:20 am64 °FLight rain. Broken clouds.2 mph83%30.18 "HgN/A
9:20 am63 °FLight rain. Partly sunny.2 mph94%30.15 "HgN/A
8:20 am63 °FBroken clouds.1 mph94%30.15 "HgN/A
7:20 am63 °FPartly sunny.1 mph94%30.15 "Hg5 mi
6:20 am61 °FPartly sunny.1 mph100%30.15 "Hg4 mi
Weather by CustomWeather, © 2019

See weather overview